FW5431 Weather Reports


Display with metric or nautical units.
time (UTC)temp
F
wind
direction
speed
MPH
gust
MPH
rain 1hr
in
rain 24hr
in
rain mn
in
humidity
%
barometer
mb
20260505221602 72 251 0.0 2.0 0.00 0.00 0.00 90 1017.0
20260505220059 73 251 0.0 0.0 0.00 0.00 0.00 89 1017.0
20260505214558 73 251 0.0 3.0 0.00 0.00 0.00 89 1017.0
20260505213058 73 269 0.0 2.0 0.00 0.00 0.00 89 1016.9
20260505211558 74 267 0.0 2.0 0.00 0.00 0.00 88 1016.7
20260505210059 75 267 0.0 2.0 0.00 0.00 0.00 87 1016.6
20260505210002 75 267 0.0 2.0 0.00 0.00 0.00 87 1016.6
20260505204602 76 267 0.0 0.0 0.00 0.00 0.00 86 1016.4
20260505203105 77 267 0.0 1.0 0.00 0.00 0.00 85 1016.3
20260505201558 78 267 1.0 3.0 0.00 0.00 0.00 83 1016.1
20260505200059 81 261 2.0 3.0 0.00 0.00 0.00 79 1016.0
20260505200001 81 265 2.0 3.0 0.00 0.00 0.00 78 1016.0
20260505194618 83 22 1.0 2.0 0.00 0.00 0.00 76 1015.8
20260505193106 83 22 0.0 3.0 0.00 0.00 0.00 74 1015.7
20260505191608 83 26 1.0 5.0 0.00 0.00 0.00 72 1015.7
20260505190058 84 39 2.0 5.0 0.00 0.00 0.00 72 1015.8
20260505190001 84 25 2.0 5.0 0.00 0.00 0.00 72 1015.8
20260505184558 84 49 1.0 6.0 0.00 0.00 0.00 72 1015.8
20260505183058 84 41 3.0 6.0 0.00 0.00 0.00 71 1015.8
20260505181558 83 19 2.0 7.0 0.00 0.00 0.00 71 1016.0
20260505180002 83 37 4.0 6.0 0.00 0.00 0.00 71 1016.1
20260505174558 83 34 2.0 7.0 0.00 0.00 0.00 71 1016.2
20260505173113 83 42 2.0 7.0 0.00 0.00 0.00 72 1016.4
20260505171625 83 31 1.0 5.0 0.00 0.00 0.00 73 1016.5
20260505170058 83 32 0.0 5.0 0.00 0.00 0.00 73 1016.7
20260505170001 83 32 0.0 5.0 0.00 0.00 0.00 72 1016.7
20260505164605 82 4 1.0 5.0 0.00 0.00 0.00 73 1017.1
20260505163058 82 58 3.0 5.0 0.00 0.00 0.00 73 1017.3
20260505161602 81 117 0.0 5.0 0.00 0.00 0.00 74 1017.6
20260505153058 80 49 3.0 7.0 0.00 0.00 0.00 74 1018.3
20260505151600 80 26 2.0 6.0 0.00 0.00 0.00 75 1018.4
20260505150125 79 56 3.0 5.0 0.00 0.00 0.00 74 1018.6
20260505130104 73 62 1.0 4.0 0.00 0.00 0.00 83 1019.9
20260505124601 71 85 1.0 4.0 0.00 0.00 0.00 84 1019.8
20260505123103 70 66 2.0 4.0 0.00 0.00 0.00 86 1019.7
20260505121627 68 69 2.0 5.0 0.00 0.00 0.00 88 1019.7
20260505120058 67 262 1.0 2.0 0.00 0.00 0.00 93 1019.6
20260505120001 67 262 0.0 2.0 0.00 0.00 0.00 93 1019.6
20260505114558 64 245 0.0 1.0 0.00 0.00 0.00 97 1019.6
20260505113103 63 245 0.0 1.0 0.00 0.00 0.00 97 1019.6
20260505111558 62 245 0.0 0.0 0.00 0.00 0.00 96 1019.5
20260505101559 61 245 0.0 0.0 0.00 0.00 0.00 96 1019.1
20260505100137 61 244 0.0 0.0 0.00 0.00 0.00 96 1018.9
20260505100004 61 238 0.0 0.0 0.00 0.00 0.00 96 1018.9
20260505094558 60 238 0.0 0.0 0.00 0.00 0.00 95 1018.7
20260505093058 60 238 0.0 0.0 0.00 0.00 0.00 95 1018.5
20260505091618 60 238 0.0 0.0 0.00 0.00 0.00 95 1018.3
20260505084602 60 238 0.0 0.0 0.00 0.00 0.00 95 1018.0
20260505083057 61 238 0.0 0.0 0.00 0.00 0.00 95 1017.8
20260505081558 61 238 0.0 0.0 0.00 0.00 0.00 95 1017.8
20260505080058 61 238 0.0 0.0 0.00 0.00 0.00 95 1017.8
20260505080000 61 238 0.0 0.0 0.00 0.00 0.00 95 1017.8
20260505074558 61 238 0.0 0.0 0.00 0.00 0.00 95 1017.7
20260505073101 61 238 0.0 0.0 0.00 0.00 0.00 94 1017.6
20260505071558 61 238 0.0 0.0 0.00 0.00 0.00 94 1017.6
20260505070059 62 238 0.0 0.0 0.00 0.00 0.00 94 1017.7
20260505070002 62 238 0.0 0.0 0.00 0.00 0.00 94 1017.7
20260505064608 62 238 0.0 0.0 0.00 0.00 0.00 94 1017.6
20260505063058 62 238 0.0 0.0 0.00 0.00 0.00 94 1017.7
20260505061557 62 238 0.0 0.0 0.00 0.00 0.00 94 1017.8
20260505060058 62 238 0.0 0.0 0.00 0.00 0.00 94 1017.7
20260505060000 62 238 0.0 0.0 0.00 0.00 0.00 94 1017.7
20260505054620 63 238 0.0 0.0 0.00 0.00 0.00 93 1017.6
20260505053058 63 238 0.0 0.0 0.00 0.00 0.00 93 1017.8
20260505051558 63 238 0.0 0.0 0.00 0.00 0.00 93 1018.1
20260505041609 64 238 0.0 0.0 0.00 0.00 0.00 92 1018.8
20260505040103 64 238 0.0 0.0 0.00 0.00 0.00 92 1018.9
20260505040004 64 238 0.0 0.0 0.00 0.00 0.00 92 1018.9
20260505034559 64 238 0.0 0.0 0.00 0.00 0.00 92 1018.8
20260505033100 65 238 0.0 0.0 0.00 0.00 0.00 92 1018.9
20260505031605 65 238 0.0 0.0 0.00 0.00 0.00 91 1018.9
20260505030107 65 238 0.0 0.0 0.00 0.00 0.00 91 1019.0
20260505030003 65 238 0.0 0.0 0.00 0.00 0.00 91 1018.9
20260505024617 65 238 0.0 0.0 0.00 0.00 0.00 91 1019.3
20260505023111 66 238 0.0 0.0 0.00 0.00 0.00 91 1019.5
20260505021600 66 238 0.0 0.0 0.00 0.00 0.00 91 1019.3
20260505020106 66 238 0.0 0.0 0.00 0.00 0.00 90 1019.3
20260505020002 66 238 0.0 0.0 0.00 0.00 0.00 90 1019.3
20260505014558 66 238 0.0 0.0 0.00 0.00 0.00 90 1019.4
20260505013059 66 238 0.0 0.0 0.00 0.00 0.00 90 1019.5
20260505011559 66 238 0.0 0.0 0.00 0.00 0.00 90 1019.6
20260505010113 66 238 0.0 0.0 0.00 0.00 0.00 90 1019.3
20260505010001 66 238 0.0 0.0 0.00 0.00 0.00 90 1019.3
20260505004559 66 238 0.0 3.0 0.00 0.00 0.00 90 1019.2
20260505003116 66 240 0.0 0.0 0.00 0.00 0.00 90 1019.0
20260505001559 66 240 0.0 2.0 0.00 0.00 0.00 90 1018.7
20260505000002 66 240 0.0 3.0 0.00 0.00 0.00 90 1018.8
20260504234559 66 238 0.0 2.0 0.00 0.00 0.00 89 1018.7
20260504233108 66 238 0.0 0.0 0.00 0.00 0.00 89 1018.3
20260504231558 66 238 0.0 2.0 0.00 0.00 0.00 89 1018.5
20260504230115 66 238 0.0 2.0 0.00 0.00 0.00 89 1018.4
20260504230002 66 238 0.0 2.0 0.00 0.00 0.00 89 1018.4
20260504224626 67 238 1.0 3.0 0.00 0.00 0.00 88 1018.2
20260504223106 67 236 0.0 2.0 0.00 0.00 0.00 88 1018.2